Temperature
23 20 20 21 21 23 23 23 23 24 23 21 20 19 19 20 20 19 19 20 21 22 22 22 22 22 22 21 21 20 20 20 19 19 19 19 18 18 18 18 17 17 17 17
20 21 22 22 23 22 23 23 24 23 23 22 20 19 19 19 19 19 19 20 21 21 22 22 22 22 22 22 21 21 21 20 20 19 19 19 18 18 17 17 17 16 16 16
22 22 23 24 24 24 24 24 24 24 23 22 21 21 20 19 19 19 20 21 21 22 22 22 22 22 22 22 22 22 21 20 20 19 19 19 18 17 17 17 16 16 16 16
22 23 24 25 25 25 23 24 24 23 22 20 21 20 20 19 18 18 19 20 21 21 22 22 23 23 22 22 22 21 21 20 20 19 19 18 18 17 16 16 15 15 15 15
23 24 24 24 25 25 24 22 21 21 21 19 19 19 18 18 18 18 18 19 20 22 22 23 23 23 22 22 21 21 20 20 20 19 19 18 18 17 16 15 15 15 15 15
22 23 24 24 24 23 23 20 18 16 16 18 19 18 18 17 17 18 18 19 21 23 23 23 23 23 22 22 21 21 20 20 20 19 19 18 17 17 16 15 15 15 15 15
21 22 23 24 24 23 20 19 17 17 16 17 17 18 17 18 18 18 19 21 23 23 23 23 23 23 23 22 21 21 20 20 20 19 19 18 17 16 16 15 15 14 14 14
21 20 22 24 24 22 21 19 18 18 17 16 17 18 18 19 20 20 20 21 22 22 22 22 22 22 22 22 21 21 21 20 20 19 19 18 16 16 15 15 14 14 14 13
20 20 22 23 23 22 20 19 17 16 17 16 16 18 18 19 19 19 19 19 19 19 19 20 21 21 21 22 22 21 21 20 20 19 18 17 16 15 15 14 14 14 13 13
20 21 21 21 22 22 21 17 15 16 17 17 17 17 17 17 17 17 15 15 16 17 18 19 20 20 21 21 21 21 20 20 19 18 18 17 16 15 15 14 14 14 13 13
21 20 20 20 21 21 21 19 15 14 15 16 16 16 15 13 13 13 13 13 13 15 16 17 18 19 19 19 19 19 19 18 18 17 17 16 16 15 15 15 14 14 13 13
18 17 17 18 19 19 20 20 16 17 16 14 14 15 14 12 12 12 12 12 12 13 13 14 15 15 16 16 16 17 17 17 17 17 16 16 16 16 15 15 14 14 13 13
17 17 17 18 18 19 20 19 18 15 14 13 14 15 13 12 12 11 11 11 11 11 12 13 13 13 13 14 14 15 15 16 16 16 16 16 16 15 15 15 14 13 13 13
17 16 17 18 18 18 19 19 18 15 14 14 14 15 12 11 11 11 11 11 10 10 11 12 12 13 13 13 13 13 13 14 14 15 15 15 15 15 15 15 14 13 13 13
17 18 17 17 17 18 18 18 18 17 15 14 14 12 10 10 10 10 10 9 9 9 10 10 10 11 12 12 13 13 12 12 13 13 14 14 15 15 15 14 14 13 13 12
16 18 18 18 19 18 18 18 17 15 14 14 11 9 9 9 9 9 9 9 9 9 9 9 9 10 10 10 11 11 11 11 11 12 12 13 14 14 15 14 14 13 13 12
15 16 16 16 17 18 16 14 14 11 10 10 10 9 9 9 8 8 8 8 8 8 8 8 9 9 9 9 9 9 10 10 10 11 11 12 12 13 14 14 13 13 13 12
14 14 13 14 17 18 13 13 12 10 9 9 9 9 8 7 7 7 8 8 9 9 9 9 9 9 9 9 9 9 9 9 10 10 10 11 11 12 12 13 13 13 12 12
13 14 13 13 16 16 14 13 12 12 9 9 9 9 9 9 8 9 10 10 10 10 10 10 10 10 10 10 9 9 9 9 9 9 10 10 10 11 11 11 11 12 12 12
13 13 13 14 16 15 11 12 12 12 10 9 9 9 10 9 8 8 10 10 10 10 10 10 10 10 10 10 9 9 9 9 9 9 9 9 9 10 10 10 10 11 11 11
13 12 13 13 14 11 10 11 12 10 9 11 11 10 10 9 9 10 10 10 10 10 10 10 10 10 10 10 9 9 9 9 9 8 8 8 9 9 9 9 9 10 10 11
12 11 11 11 12 11 10 10 10 10 11 11 11 10 10 9 9 9 9 9 9 9 9 9 9 9 9 9 9 9 9 9 9 8 8 8 8 8 8 8 8 9 9 10
9 9 9 9 9 10 10 11 11 11 11 10 10 10 9 9 8 8 8 8 8 8 8 8 8 8 8 8 8 8 8 8 8 8 8 8 8 8 8 8 8 8 8 9
9 9 8 8 9 10 11 11 11 11 10 9 9 9 9 8 8 8 8 7 7 7 7 7 7 7 7 7 7 7 7 7 7 7 7 7 8 8 8 7 7 7 7 8
9 8 7 8 9 10 11 11 10 9 9 9 8 8 8 8 7 7 7 7 7 7 7 6 6 6 6 6 6 6 6 6 6 6 6 7 7 7 7 7 7 7 7 7
9 8 8 8 10 9 9 9 9 9 8 8 8 8 7 7 7 6 6 6 6 6 5 5 5 5 5 5 5 5 5 5 5 5 6 6 7 7 7 6 6 7 6 7
Wind_Speed
3 3 3 6 6 5 2 2 4 5 5 6 7 6 4 3 6 8 7 6 6 5 2 0 1 2 3 3 4 4 4 4 4 2 2 2 3 3 2 3 4 5 6 6
6 5 6 5 4 4 3 2 2 3 6 4 6 4 4 1 3 6 9 9 9 5 3 4 5 4 4 4 3 3 4 4 3 2 2 2 2 2 2 2 3 4 5 7
2 7 6 3 3 4 1 3 2 3 4 5 5 4 4 3 1 4 6 7 7 8 9 9 9 8 6 6 6 5 6 5 4 4 2 1 1 2 2 2 3 3 5 6
4 5 4 2 1 2 3 4 3 2 1 2 1 3 5 3 3 7 8 7 9 10 11 10 9 9 9 9 7 7 6 5 4 4 4 4 3 3 2 1 3 6 7 8
5 4 4 3 4 2 4 3 4 3 2 1 3 2 7 3 5 10 9 10 12 14 13 11 10 10 7 5 5 6 5 5 4 4 5 5 4 3 2 2 4 5 7 8
5 4 3 2 2 2 4 6 7 6 5 1 2 3 6 6 9 8 9 10 13 13 11 9 8 6 5 4 5 4 5 6 6 6 6 7 7 6 4 3 4 5 6 7
9 9 5 1 2 4 7 7 6 7 6 4 5 3 9 9 9 10 12 15 14 10 8 8 9 8 7 7 7 5 6 8 7 6 6 7 7 6 5 4 4 5 5 6
3 8 6 3 3 4 2 8 6 3 4 6 4 5 8 7 7 8 9 9 6 5 6 8 9 9 9 9 8 6 7 8 7 6 6 5 6 4 4 5 5 5 5 7
6 7 6 5 3 5 5 3 6 6 2 3 6 7 9 7 7 4 2 2 5 7 8 8 9 9 9 9 8 7 8 7 6 6 6 6 6 6 6 6 5 5 5 6
8 5 7 7 5 4 2 7 6 5 3 4 7 5 5 11 14 10 9 10 10 11 11 12 11 11 9 7 7 5 5 5 4 5 6 6 7 7 7 6 6 6 5 4
4 3 7 7 4 4 2 4 5 4 4 5 5 6 4 8 9 6 10 11 11 12 13 14 15 14 12 11 10 9 9 8 6 6 7 7 8 8 7 7 7 5 4 5
4 5 3 7 7 4 1 4 6 1 4 5 4 6 6 8 10 12 11 11 10 11 12 13 15 16 16 15 13 12 10 9 8 7 7 9 8 8 8 9 8 5 5 4
6 5 4 9 7 6 3 1 4 5 3 5 5 4 5 9 11 12 11 10 11 12 14 14 14 14 14 13 13 13 12 11 11 8 8 9 9 9 10 10 8 6 5 4
6 5 6 7 8 5 7 7 2 6 4 6 8 4 6 10 10 10 9 10 11 12 12 13 12 12 12 11 10 11 11 10 11 10 9 10 11 12 11 10 8 7 5 3
5 4 8 8 7 4 6 9 7 3 6 7 2 5 7 10 9 9 9 12 14 15 16 15 14 13 13 13 12 11 11 11 11 11 10 10 11 11 10 10 9 7 6 5
3 3 3 4 5 4 4 6 4 5 6 4 8 7 8 9 12 13 14 16 18 18 19 18 16 15 14 14 14 13 11 11 10 11 11 11 11 10 11 11 9 8 7 6
1 4 2 4 5 4 5 10 5 7 7 7 5 4 10 12 15 15 16 17 18 17 17 16 15 14 13 12 13 13 12 10 10 9 10 10 11 11 10 9 9 10 9 8
4 4 2 2 4 1 3 5 9 9 7 7 5 5 9 11 12 11 13 16 16 15 14 14 14 13 12 12 13 13 11 10 10 10 9 9 10 10 9 8 10 10 8 9
4 5 3 3 2 1 5 6 6 3 3 2 4 10 11 12 11 10 14 16 16 14 14 14 14 14 12 13 13 13 12 11 11 11 10 9 9 10 10 8 9 8 8 9
6 5 4 3 2 2 5 12 14 2 1 4 8 13 14 12 11 10 9 11 14 16 16 15 14 13 13 14 11 11 12 11 12 12 11 10 9 8 9 9 9 7 8 10
8 7 5 3 2 4 6 12 10 6 8 14 14 15 15 12 15 17 16 17 18 19 20 19 17 15 14 13 11 13 13 13 14 12 11 11 10 8 8 7 7 7 8 9
5 6 6 5 5 3 6 7 6 7 12 14 16 15 17 18 19 19 19 18 18 19 18 18 16 18 15 12 11 14 15 16 14 12 13 13 11 9 8 6 6 7 8 10
5 2 1 3 1 6 5 4 8 11 14 15 15 17 17 18 19 18 18 18 18 18 18 16 16 18 15 13 12 15 16 15 13 13 14 14 12 9 8 8 6 6 7 9
6 4 4 2 3 6 9 11 12 12 13 14 15 16 15 18 20 20 19 18 17 17 17 16 16 18 17 15 14 15 15 13 13 14 14 13 11 10 9 8 7 5 5 8
4 4 3 3 7 10 9 10 12 11 12 14 15 16 15 18 21 22 21 20 19 18 16 15 16 18 19 17 16 15 13 12 13 14 14 12 10 10 9 9 8 8 6 7
2 1 1 5 9 7 11 11 10 11 13 15 17 16 15 17 21 22 20 18 19 19 18 18 19 20 20 18 17 14 13 13 13 12 12 10 9 8 8 8 8 10 10 12
Wind_Direction
30 55 266 244 210 213 258 244 275 289 330 54 59 83 59 83 116 121 124 138 163 150 117 110 176 156 160 170 169 172 172 175 161 162 183 212 245 259 264 260 269 286 297 300
12 320 266 247 217 197 204 196 303 305 348 75 79 55 351 304 187 156 161 176 180 171 186 229 236 232 224 219 202 193 200 202 194 179 188 195 216 258 273 291 309 325 328 317
265 272 310 349 72 100 127 181 245 292 10 52 88 14 321 310 82 157 183 191 189 190 207 222 227 230 232 235 228 220 219 220 221 204 181 155 32 344 334 334 332 332 323 311
291 277 313 341 338 124 276 246 242 262 41 293 87 227 265 288 228 203 199 200 208 219 223 224 225 227 227 231 233 233 229 228 228 202 201 199 203 237 250 291 304 312 315 314
290 310 334 324 308 289 235 50 52 22 184 7 18 173 278 300 247 229 212 207 212 219 220 223 227 231 239 240 238 239 249 259 253 228 216 206 208 210 217 248 286 299 306 308
272 308 286 263 327 26 86 62 48 44 67 64 310 178 275 229 221 230 227 225 224 227 231 240 249 256 266 265 255 244 246 259 252 233 215 202 204 198 210 253 286 297 301 303
336 330 319 241 334 8 68 67 17 359 7 269 284 240 252 247 227 214 216 225 229 235 247 262 271 275 274 271 257 233 229 249 248 229 213 202 196 188 202 236 266 289 306 311
328 308 299 304 231 232 142 131 152 223 251 286 316 245 255 259 265 239 233 236 246 275 289 288 285 282 276 267 256 229 223 243 246 228 215 195 181 181 207 232 246 267 288 298
199 260 300 325 307 166 139 155 156 138 188 273 288 288 304 328 319 306 291 341 2 360 344 320 309 298 284 275 261 233 227 240 239 228 216 199 194 200 219 236 246 259 273 292
171 247 297 315 17 41 121 133 98 123 170 263 292 291 291 323 323 344 35 46 37 25 16 5 357 347 340 329 318 311 294 283 271 238 222 213 210 215 224 235 253 263 276 289
160 186 303 342 8 342 30 81 97 110 160 179 256 274 336 317 325 26 58 52 40 31 23 19 16 12 10 10 7 357 347 331 306 267 240 227 222 223 228 236 250 263 274 296
116 122 287 293 285 299 233 140 138 119 266 199 216 266 10 28 47 62 53 41 31 27 24 21 17 15 15 11 4 356 346 329 304 280 256 241 234 229 233 240 246 251 268 287
130 101 13 343 340 353 22 159 154 138 156 190 201 240 50 42 50 47 44 30 21 19 19 16 12 7 2 358 354 349 345 337 324 305 275 259 246 236 237 240 240 238 252 278
114 123 169 221 238 261 295 289 232 147 197 234 224 175 34 23 31 28 24 19 14 12 9 5 360 353 346 342 340 338 334 334 332 321 295 274 261 249 243 238 233 228 229 244
111 195 222 239 253 269 270 289 309 236 222 223 268 87 19 6 3 358 1 2 360 356 351 348 343 340 335 333 332 331 328 330 331 328 320 299 283 267 253 240 228 218 213 216
74 211 218 277 280 274 284 329 2 29 16 57 88 56 357 351 354 349 347 348 345 342 337 331 328 324 318 318 317 313 312 315 320 325 327 323 312 291 266 247 226 210 203 201
64 136 133 272 304 343 8 353 31 57 32 30 56 15 343 344 347 341 329 326 324 323 316 308 305 300 296 298 304 296 290 297 305 310 316 322 328 320 294 262 231 214 201 195
121 106 133 299 3 331 135 75 93 101 76 69 66 347 325 302 292 278 270 269 272 276 282 288 290 287 286 291 299 293 287 294 299 302 307 315 324 328 318 282 246 227 205 199
115 126 96 76 333 315 99 7 355 345 96 19 325 304 294 282 282 271 257 250 255 265 274 277 278 280 282 286 292 294 288 291 295 296 298 306 312 317 317 302 269 241 216 207
49 68 87 70 308 319 354 326 320 248 107 254 278 290 298 309 305 295 272 270 277 286 290 287 286 284 280 276 279 282 281 285 286 285 284 285 288 293 302 304 291 254 226 217
8 12 37 20 302 62 326 332 21 41 309 297 289 285 288 279 275 283 285 285 285 286 286 285 284 281 275 271 274 275 274 272 271 272 272 269 268 270 276 290 302 276 241 220
41 17 7 8 15 2 322 22 31 286 271 275 281 282 284 285 287 290 291 289 288 288 284 280 277 275 275 272 271 275 275 272 272 273 273 266 261 263 271 266 291 288 257 229
48 15 90 94 228 250 279 255 251 258 273 280 288 294 297 298 297 296 294 292 292 288 285 280 276 277 275 268 262 267 272 274 273 273 273 270 266 262 261 254 258 283 269 242
1 15 94 68 297 291 276 266 273 285 292 298 302 303 303 299 299 299 299 297 293 289 286 285 283 281 277 269 262 260 267 269 267 267 268 266 263 264 264 257 243 245 267 255
348 26 44 316 284 294 286 289 301 312 314 310 308 305 300 298 298 298 300 297 296 292 289 286 283 281 277 271 262 258 260 263 261 263 264 258 254 256 262 259 245 237 245 262
339 80 53 269 272 283 291 299 305 308 307 305 306 305 300 297 298 301 301 299 298 296 293 292 289 285 282 275 268 262 258 257 256 264 262 251 247 248 251 259 266 248 253 271
Height
1501 1506 1510 1506 1504 1504 1505 1507 1508 1501 1494 1496 1500 1500 1498 1496 1496 1498 1500 1503 1506 1506 1507 1509 1511 1512 1513 1513 1512 1513 1514 1514 1514 1515 1514 1514 1513 1512 1512 1510 1509 1508 1507 1505
1505 1507 1500 1497 1497 1500 1503 1506 1506 1501 1495 1497 1502 1504 1501 1499 1498 1498 1500 1503 1505 1506 1507 1509 1510 1511 1511 1511 1511 1512 1513 1513 1513 1513 1512 1511 1510 1509 1508 1506 1505 1503 1501 1500
1508 1503 1495 1495 1497 1500 1502 1505 1504 1502 1499 1500 1504 1509 1505 1501 1500 1501 1501 1502 1504 1505 1506 1507 1508 1509 1510 1510 1511 1511 1511 1511 1511 1511 1510 1508 1507 1506 1505 1503 1502 1499 1496 1494
1504 1499 1496 1496 1497 1498 1506 1497 1499 1501 1507 1513 1509 1524 1510 1505 1503 1501 1501 1502 1503 1504 1505 1505 1506 1507 1508 1508 1509 1510 1510 1510 1509 1508 1507 1505 1504 1503 1501 1499 1497 1495 1492 1489
1505 1499 1498 1499 1497 1495 1498 1497 1501 1505 1509 1517 1516 1524 1519 1507 1506 1501 1500 1501 1501 1501 1501 1502 1504 1505 1505 1506 1507 1507 1507 1507 1507 1505 1503 1501 1500 1499 1497 1495 1492 1490 1487 1483
1502 1498 1497 1496 1494 1494 1496 1503 1510 1518 1523 1530 1519 1526 1521 1510 1502 1497 1495 1495 1495 1496 1497 1499 1500 1501 1502 1503 1504 1504 1504 1504 1503 1501 1499 1497 1496 1494 1493 1490 1488 1485 1481 1476
1510 1501 1496 1494 1497 1497 1501 1516 1536 1539 1543 1537 1523 1523 1519 1497 1492 1491 1490 1489 1489 1492 1495 1496 1497 1498 1499 1499 1500 1500 1501 1500 1500 1497 1495 1493 1492 1490 1488 1486 1483 1479 1475 1471
1521 1521 1500 1495 1497 1502 1503 1514 1535 1544 1548 1539 1525 1524 1507 1490 1487 1487 1487 1488 1490 1492 1494 1494 1495 1495 1496 1496 1496 1497 1497 1497 1496 1494 1491 1489 1488 1487 1485 1482 1479 1475 1471 1468
1521 1519 1500 1496 1494 1496 1506 1511 1515 1531 1535 1541 1532 1517 1499 1488 1487 1487 1488 1490 1492 1494 1494 1493 1493 1493 1493 1493 1492 1493 1493 1493 1492 1491 1488 1486 1484 1483 1481 1478 1475 1472 1468 1465
1510 1517 1505 1499 1496 1497 1500 1507 1522 1531 1540 1543 1532 1523 1517 1503 1497 1494 1494 1495 1495 1494 1493 1492 1491 1490 1490 1490 1490 1490 1490 1490 1489 1488 1485 1483 1481 1479 1477 1474 1472 1469 1465 1462
1506 1516 1513 1506 1504 1505 1504 1510 1521 1531 1533 1540 1542 1530 1515 1512 1504 1502 1501 1499 1498 1496 1494 1492 1490 1489 1489 1488 1487 1487 1488 1487 1487 1485 1483 1480 1478 1475 1473 1471 1468 1466 1463 1459
1508 1518 1523 1515 1504 1503 1502 1505 1517 1526 1528 1534 1538 1532 1516 1512 1508 1506 1506 1504 1502 1499 1495 1493 1491 1490 1488 1487 1487 1486 1486 1485 1483 1481 1479 1476 1474 1472 1470 1467 1465 1462 1460 1457
1508 1518 1529 1525 1519 1508 1505 1505 1509 1518 1527 1534 1536 1526 1516 1513 1511 1510 1509 1507 1504 1500 1496 1494 1492 1491 1489 1487 1486 1484 1482 1480 1478 1476 1474 1472 1470 1467 1465 1463 1461 1459 1457 1455
1503 1516 1524 1527 1522 1512 1509 1506 1506 1518 1527 1526 1520 1516 1518 1518 1516 1514 1512 1509 1506 1502 1499 1495 1493 1491 1489 1486 1483 1481 1479 1476 1472 1470 1467 1465 1464 1462 1461 1459 1457 1456 1454 1452
1502 1512 1512 1511 1508 1508 1508 1506 1505 1509 1513 1518 1515 1520 1525 1524 1521 1518 1514 1509 1505 1501 1498 1495 1492 1488 1486 1483 1480 1477 1475 1472 1468 1465 1461 1458 1456 1455 1454 1453 1452 1451 1450 1449
1504 1509 1510 1509 1504 1505 1507 1506 1506 1510 1514 1515 1521 1529 1529 1526 1522 1518 1514 1510 1505 1500 1497 1494 1489 1485 1482 1479 1475 1472 1469 1467 1464 1460 1456 1452 1449 1447 1446 1446 1446 1446 1445 1445
1508 1512 1517 1519 1510 1506 1517 1520 1516 1524 1528 1527 1529 1535 1530 1525 1521 1518 1514 1510 1505 1498 1495 1492 1488 1484 1480 1477 1473 1468 1465 1462 1459 1455 1452 1449 1444 1441 1439 1438 1438 1439 1439 1440
1512 1516 1522 1522 1514 1519 1533 1524 1524 1528 1530 1530 1530 1530 1528 1524 1518 1512 1509 1504 1499 1495 1492 1489 1484 1480 1475 1471 1467 1462 1459 1456 1453 1450 1447 1444 1440 1436 1433 1431 1431 1432 1433 1434
1509 1515 1523 1529 1524 1520 1525 1525 1525 1524 1531 1531 1528 1524 1520 1515 1511 1506 1504 1500 1496 1492 1487 1482 1478 1473 1468 1465 1461 1457 1453 1451 1447 1444 1441 1438 1435 1431 1428 1426 1425 1424 1426 1428
1512 1515 1522 1526 1525 1529 1538 1530 1523 1525 1528 1530 1526 1522 1518 1514 1510 1501 1499 1495 1490 1485 1479 1474 1470 1465 1460 1457 1454 1450 1446 1443 1441 1438 1435 1433 1430 1427 1423 1421 1419 1418 1418 1420
1525 1527 1529 1530 1530 1536 1541 1533 1526 1537 1539 1529 1524 1519 1514 1510 1504 1495 1490 1486 1482 1476 1470 1465 1461 1456 1451 1448 1445 1440 1436 1434 1433 1431 1428 1426 1424 1421 1418 1415 1413 1412 1411 1413
1536 1538 1538 1539 1538 1544 1539 1535 1538 1540 1530 1524 1518 1513 1507 1501 1495 1489 1483 1477 1471 1466 1461 1456 1451 1445 1441 1439 1436 1430 1426 1425 1424 1422 1420 1417 1415 1413 1410 1408 1406 1405 1405 1405
1542 1544 1542 1545 1548 1543 1539 1537 1533 1529 1523 1518 1513 1508 1502 1495 1488 1481 1474 1467 1461 1455 1450 1445 1440 1433 1430 1428 1425 1420 1417 1416 1414 1412 1410 1407 1405 1404 1402 1400 1398 1397 1398 1398
1543 1541 1543 1545 1543 1540 1536 1532 1528 1525 1520 1514 1508 1502 1496 1488 1480 1472 1465 1458 1451 1444 1439 1433 1428 1421 1417 1415 1412 1409 1406 1405 1402 1400 1398 1397 1396 1394 1392 1391 1389 1388 1389 1390
1547 1544 1546 1546 1541 1536 1531 1529 1525 1520 1514 1508 1502 1495 1489 1481 1472 1465 1456 1448 1440 1433 1427 1421 1415 1409 1403 1400 1398 1396 1394 1393 1390 1388 1387 1387 1386 1385 1383 1382 1381 1380 1380 1381
1546 1547 1548 1546 1539 1535 1530 1525 1520 1514 1508 1502 1494 1486 1479 1473 1464 1455 1446 1437 1429 1421 1415 1408 1402 1395 1390 1386 1383 1381 1380 1379 1377 1376 1376 1376 1377 1376 1375 1374 1372 1370 1370 1370